DW6964 Weather Reports


Display with metric or nautical units.
time (UTC)temp
F
wind
direction
speed
MPH
gust
MPH
rain 1hr
in
rain 24hr
in
rain mn
in
humidity
%
barometer
mb
20260504110516 44 323 0.0 3.0 0.00 0.00 0.00 71 1009.1
20260504100516 42 0.0 0.0 0.00 0.00 0.00 77 1008.9
20260504081515 46 0.0 0.0 0.00 0.00 0.00 68 1009.2
20260504080536 46 0.0 0.0 0.00 0.00 0.00 67 1009.3
20260504050516 47 0.0 0.0 0.00 0.00 0.00 61 1009.9
20260504045516 47 17 0.0 3.0 0.00 0.00 0.00 63 1010.0
20260504044516 47 0.0 0.0 0.00 0.00 0.00 64 1010.1
20260504043516 46 0.0 0.0 0.00 0.00 0.00 63 1010.2
20260504042516 46 0.0 0.0 0.00 0.00 0.00 63 1010.2
20260504041516 46 0.0 0.0 0.00 0.00 0.00 61 1010.2
20260504040516 46 0.0 0.0 0.00 0.00 0.00 60 1010.1
20260504035537 46 0.0 0.0 0.00 0.00 0.00 61 1010.1
20260504034516 46 0.0 0.0 0.00 0.00 0.00 58 1010.0
20260504033517 46 0.0 0.0 0.00 0.00 0.00 58 1009.9
20260504032517 46 0.0 0.0 0.00 0.00 0.00 58 1009.9
20260504031516 46 0.0 2.0 0.00 0.00 0.00 57 1009.9
20260504030516 46 238 0.0 1.0 0.00 0.00 0.00 56 1009.9
20260504025517 46 0.0 0.0 0.00 0.00 0.00 55 1009.8
20260504024516 46 0.0 0.0 0.00 0.00 0.00 53 1009.7
20260504023516 46 0.0 0.0 0.00 0.00 0.00 55 1009.7
20260504022516 47 0.0 0.0 0.00 0.00 0.00 54 1009.8
20260504021516 47 0.0 0.0 0.00 0.00 0.00 53 1009.8
20260504020516 47 0.0 0.0 0.00 0.00 0.00 52 1009.9
20260504015516 47 0.0 0.0 0.00 0.00 0.00 49 1009.9
20260504014536 47 0.0 0.0 0.00 0.00 0.00 49 1009.9
20260504013516 48 0.0 0.0 0.00 0.00 0.00 45 1009.8
20260504012536 49 0.0 1.0 0.00 0.00 0.00 44 1009.7
20260504011516 49 238 0.0 4.0 0.00 0.00 0.00 43 1009.6
20260504010516 49 245 0.0 4.0 0.00 0.00 0.00 43 1009.5
20260504005536 50 191 0.0 3.0 0.00 0.00 0.00 43 1009.2
20260504004516 50 250 0.0 2.0 0.00 0.00 0.00 43 1009.1
20260504003516 50 250 0.0 1.0 0.00 0.00 0.00 42 1009.0
20260504002516 51 249 0.0 2.0 0.00 0.00 0.00 41 1008.8
20260504001556 51 0.0 3.0 0.00 0.00 0.00 39 1008.7
20260504000516 52 250 1.0 7.0 0.00 0.00 0.00 37 1008.5
20260503235516 53 276 1.0 5.0 0.00 0.00 0.00 36 1008.4
20260503234516 53 269 3.0 12.0 0.00 0.00 0.00 34 1008.1
20260503233516 54 276 2.0 6.0 0.00 0.00 0.00 33 1007.9
20260503232516 54 258 2.0 5.0 0.00 0.00 0.00 32 1007.8
20260503231516 55 294 2.0 8.0 0.00 0.00 0.00 30 1007.6
20260503230516 55 272 2.0 9.0 0.00 0.00 0.00 29 1007.5
20260503225516 56 262 2.0 5.0 0.00 0.00 0.00 27 1007.4
20260503224556 56 266 2.0 7.0 0.00 0.00 0.00 28 1007.4
20260503223515 57 263 2.0 7.0 0.00 0.00 0.00 27 1007.3
20260503222515 58 238 2.0 8.0 0.00 0.00 0.00 27 1007.3
20260503221536 59 271 1.0 5.0 0.00 0.00 0.00 29 1007.3
20260503220516 59 262 2.0 6.0 0.00 0.00 0.00 31 1007.3
20260503215515 58 290 1.0 9.0 0.00 0.00 0.00 32 1007.4
20260503214515 58 273 2.0 8.0 0.00 0.00 0.00 31 1007.4
20260503213515 58 248 3.0 8.0 0.00 0.00 0.00 31 1007.4
20260503212515 57 229 2.0 5.0 0.00 0.00 0.00 31 1007.5
20260503211515 56 262 1.0 5.0 0.00 0.00 0.00 33 1007.6
20260503210515 56 275 2.0 9.0 0.00 0.00 0.00 35 1007.7
20260503205515 56 343 0.0 8.0 0.00 0.00 0.00 34 1007.8
20260503204515 57 250 2.0 5.0 0.00 0.00 0.00 34 1007.9
20260503203515 56 261 2.0 8.0 0.00 0.00 0.00 34 1008.0
20260503202536 55 235 3.0 9.0 0.00 0.00 0.00 34 1008.0
20260503201515 54 277 1.0 4.0 0.00 0.00 0.00 36 1008.0
20260503200515 53 272 1.0 9.0 0.00 0.00 0.00 36 1008.1
20260503195535 53 260 1.0 3.0 0.00 0.00 0.00 37 1008.2
20260503194515 53 245 0.0 5.0 0.00 0.00 0.00 39 1008.4
20260503193515 53 286 2.0 5.0 0.00 0.00 0.00 38 1008.5
20260503192536 52 311 1.0 4.0 0.00 0.00 0.00 39 1008.6
20260503191515 53 240 1.0 8.0 0.00 0.00 0.00 40 1008.7
20260503190515 53 243 1.0 5.0 0.00 0.00 0.00 39 1008.8
20260503185535 53 281 3.0 5.0 0.00 0.00 0.00 38 1008.9
20260503184535 52 262 3.0 7.0 0.00 0.00 0.00 39 1009.0
20260503183515 52 246 2.0 6.0 0.00 0.00 0.00 40 1009.1
20260503182535 52 257 1.0 5.0 0.00 0.00 0.00 40 1009.2
20260503181515 51 268 2.0 11.0 0.00 0.00 0.00 40 1009.2
20260503180515 51 253 2.0 5.0 0.00 0.00 0.00 40 1009.3
20260503175515 51 267 2.0 6.0 0.00 0.00 0.00 39 1009.3
20260503174515 51 257 2.0 9.0 0.00 0.00 0.00 38 1009.4
20260503173514 51 290 1.0 6.0 0.00 0.00 0.00 40 1009.4
20260503172517 51 278 2.0 7.0 0.00 0.00 0.00 38 1009.4
20260503171515 51 266 2.0 8.0 0.00 0.00 0.00 39 1009.3
20260503170537 51 308 2.0 8.0 0.00 0.00 0.00 39 1009.3
20260503150637 49 265 3.0 8.0 0.00 0.00 0.00 44 1009.5
20260503130516 45 249 2.0 5.0 0.00 0.00 0.00 66 1010.4